Time,TemperatureF,DewpointF,PressureIn,WindDirection,WindDirectionDegrees,WindSpeedMPH,WindSpeedGustMPH,Humidity,HourlyPrecipIn,Conditions,Clouds,dailyrainin,SoftwareType,DateUTC
2013-05-12 00:01:00,58.4,58.4,29.68,West,261,0.9,4.8,100,0.00,n/a,n/a,-99.99,Henriksen +1-Wire,2013-05-12 04:01:00,
2013-05-12 00:03:00,58.4,58.4,29.68,WSW,245,0.1,4.8,100,0.00,n/a,n/a,-99.99,Henriksen +1-Wire,2013-05-12 04:03:00,
2013-05-12 00:05:00,58.4,58.4,29.68,SW,226,0.0,4.8,100,0.00,n/a,n/a,-99.99,Henriksen +1-Wire,2013-05-12 04:05:00,
2013-05-12 00:07:00,58.3,58.3,29.68,SW,223,0.1,2.6,100,0.00,n/a,n/a,-99.99,Henriksen +1-Wire,2013-05-12 04:07:00,
2013-05-12 00:09:00,58.3,58.3,29.68,SW,218,0.0,2.3,100,0.00,n/a,n/a,-99.99,Henriksen +1-Wire,2013-05-12 04:09:00,
2013-05-12 00:15:00,58.2,58.2,29.67,SW,223,0.1,1.6,100,0.00,n/a,n/a,-99.99,Henriksen +1-Wire,2013-05-12 04:15:00,
2013-05-12 00:20:00,58.1,58.1,29.67,ESE,117,0.0,1.6,100,0.00,n/a,n/a,-99.99,Henriksen +1-Wire,2013-05-12 04:20:00,
2013-05-12 00:25:00,58.0,58.0,29.67,SSE,153,0.0,0.4,100,0.00,n/a,n/a,-99.99,Henriksen +1-Wire,2013-05-12 04:25:00,
2013-05-12 00:30:00,57.9,57.9,29.67,South,183,0.0,0.8,100,0.00,n/a,n/a,-99.99,Henriksen +1-Wire,2013-05-12 04:30:00,
2013-05-12 00:35:00,57.8,57.8,29.67,South,174,0.0,0.8,100,0.00,n/a,n/a,-99.99,Henriksen +1-Wire,2013-05-12 04:35:00,
2013-05-12 00:40:00,57.8,57.8,29.67,South,171,0.0,0.0,100,0.00,n/a,n/a,-99.99,Henriksen +1-Wire,2013-05-12 04:40:00,
2013-05-12 00:45:00,57.8,57.8,29.67,South,185,1.0,2.1,100,0.00,n/a,n/a,-99.99,Henriksen +1-Wire,2013-05-12 04:45:00,
2013-05-12 00:50:00,57.8,57.8,29.66,SSW,193,0.3,2.1,100,0.00,n/a,n/a,-99.99,Henriksen +1-Wire,2013-05-12 04:50:00,
2013-05-12 00:55:00,57.7,57.7,29.66,SSW,201,0.0,2.0,100,0.00,n/a,n/a,-99.99,Henriksen +1-Wire,2013-05-12 04:55:00,
2013-05-12 01:00:00,57.5,57.5,29.66,ESE,121,0.0,0.8,100,0.00,n/a,n/a,-99.99,Henriksen +1-Wire,2013-05-12 05:00:00,
2013-05-12 01:05:00,57.2,57.2,29.66,SSE,151,0.0,0.0,100,0.00,n/a,n/a,-99.99,Henriksen +1-Wire,2013-05-12 05:05:00,
2013-05-12 01:11:00,56.9,56.9,29.66,SSE,166,0.0,0.0,100,0.00,n/a,n/a,-99.99,Henriksen +1-Wire,2013-05-12 05:11:00,
2013-05-12 01:17:00,56.6,56.6,29.65,South,181,0.2,1.2,100,0.00,n/a,n/a,-99.99,Henriksen +1-Wire,2013-05-12 05:17:00,
2013-05-12 01:22:00,56.3,56.3,29.66,South,169,1.3,2.4,100,0.00,n/a,n/a,-99.99,Henriksen +1-Wire,2013-05-12 05:22:00,
2013-05-12 01:27:00,56.0,56.0,29.66,South,173,1.9,2.7,100,0.00,n/a,n/a,-99.99,Henriksen +1-Wire,2013-05-12 05:27:00,
2013-05-12 01:32:00,55.3,55.3,29.65,South,183,3.5,6.0,100,0.00,n/a,n/a,-99.99,Henriksen +1-Wire,2013-05-12 05:32:00,
2013-05-12 01:37:00,54.9,54.9,29.65,South,186,2.9,6.0,100,0.00,n/a,n/a,-99.99,Henriksen +1-Wire,2013-05-12 05:37:00,
2013-05-12 01:43:00,54.6,54.6,29.64,South,191,3.4,5.5,100,0.00,n/a,n/a,-99.99,Henriksen +1-Wire,2013-05-12 05:43:00,
2013-05-12 01:48:00,54.3,54.3,29.64,South,186,1.1,5.5,100,0.00,n/a,n/a,-99.99,Henriksen +1-Wire,2013-05-12 05:48:00,
2013-05-12 01:53:00,54.2,54.2,29.64,ESE,121,0.9,4.0,100,0.00,n/a,n/a,-99.99,Henriksen +1-Wire,2013-05-12 05:53:00,
2013-05-12 01:58:00,54.1,54.1,29.64,SSE,147,0.4,1.6,100,0.00,n/a,n/a,-99.99,Henriksen +1-Wire,2013-05-12 05:58:00,
2013-05-12 02:04:00,54.1,54.1,29.64,South,188,0.4,1.7,100,0.00,n/a,n/a,-99.99,Henriksen +1-Wire,2013-05-12 06:04:00,
2013-05-12 02:09:00,54.0,54.0,29.64,South,173,0.4,1.7,100,0.00,n/a,n/a,-99.99,Henriksen +1-Wire,2013-05-12 06:09:00,
2013-05-12 02:15:00,53.9,53.9,29.64,SSE,166,0.0,1.6,100,0.00,n/a,n/a,-99.99,Henriksen +1-Wire,2013-05-12 06:15:00,
2013-05-12 02:20:00,54.0,54.0,29.64,South,171,0.0,0.8,100,0.00,n/a,n/a,-99.99,Henriksen +1-Wire,2013-05-12 06:20:00,
2013-05-12 02:25:00,54.1,54.1,29.64,South,184,0.1,0.8,100,0.00,n/a,n/a,-99.99,Henriksen +1-Wire,2013-05-12 06:25:00,
2013-05-12 02:30:00,54.3,54.3,29.64,South,171,1.1,1.9,100,0.00,n/a,n/a,-99.99,Henriksen +1-Wire,2013-05-12 06:30:00,
2013-05-12 02:35:00,54.5,54.5,29.64,SSE,156,1.0,1.9,100,0.00,n/a,n/a,-99.99,Henriksen +1-Wire,2013-05-12 06:35:00,
2013-05-12 02:40:00,54.6,54.6,29.64,SSE,160,0.7,1.6,100,0.00,n/a,n/a,-99.99,Henriksen +1-Wire,2013-05-12 06:40:00,
2013-05-12 02:45:00,54.8,54.8,29.64,South,175,1.8,3.6,100,0.00,n/a,n/a,-99.99,Henriksen +1-Wire,2013-05-12 06:45:00,
2013-05-12 02:50:00,55.0,55.0,29.63,South,183,1.0,3.6,100,0.00,n/a,n/a,-99.99,Henriksen +1-Wire,2013-05-12 06:50:00,
2013-05-12 02:55:00,55.0,55.0,29.63,South,181,1.3,3.2,100,0.00,n/a,n/a,-99.99,Henriksen +1-Wire,2013-05-12 06:55:00,
2013-05-12 03:00:00,54.9,54.9,29.63,South,169,2.0,3.2,100,0.00,n/a,n/a,-99.99,Henriksen +1-Wire,2013-05-12 07:00:00,
2013-05-12 03:05:00,54.8,54.8,29.63,SSW,193,2.3,3.7,100,0.00,n/a,n/a,-99.99,Henriksen +1-Wire,2013-05-12 07:05:00,
2013-05-12 03:10:00,54.7,54.7,29.64,SSE,147,1.8,3.9,100,0.00,n/a,n/a,-99.99,Henriksen +1-Wire,2013-05-12 07:10:00,
2013-05-12 03:15:00,54.7,54.7,29.64,SSE,161,0.8,3.9,100,0.00,n/a,n/a,-99.99,Henriksen +1-Wire,2013-05-12 07:15:00,
2013-05-12 03:20:00,54.7,54.7,29.63,SSW,194,1.0,2.4,100,0.00,n/a,n/a,-99.99,Henriksen +1-Wire,2013-05-12 07:20:00,
2013-05-12 03:25:00,54.8,54.8,29.63,SSW,196,1.4,3.3,100,0.00,n/a,n/a,-99.99,Henriksen +1-Wire,2013-05-12 07:25:00,
2013-05-12 03:30:00,55.0,55.0,29.63,SW,220,2.9,5.5,100,0.00,n/a,n/a,-99.99,Henriksen +1-Wire,2013-05-12 07:30:00,
2013-05-12 03:35:00,55.6,55.6,29.64,SW,223,3.4,6.5,100,0.00,n/a,n/a,-99.99,Henriksen +1-Wire,2013-05-12 07:35:00,
2013-05-12 03:40:00,56.2,56.2,29.64,SW,220,2.1,6.5,100,0.00,n/a,n/a,-99.99,Henriksen +1-Wire,2013-05-12 07:40:00,
2013-05-12 03:45:00,56.6,56.6,29.64,SW,215,2.2,4.7,100,0.00,n/a,n/a,-99.99,Henriksen +1-Wire,2013-05-12 07:45:00,
2013-05-12 03:50:00,57.0,57.0,29.63,SSW,200,1.9,5.0,100,0.00,n/a,n/a,-99.99,Henriksen +1-Wire,2013-05-12 07:50:00,
2013-05-12 03:55:00,57.2,57.2,29.63,SSW,207,1.8,5.0,100,0.00,n/a,n/a,-99.99,Henriksen +1-Wire,2013-05-12 07:55:00,
2013-05-12 04:00:00,57.4,57.4,29.62,WSW,255,1.5,3.1,100,0.00,n/a,n/a,-99.99,Henriksen +1-Wire,2013-05-12 08:00:00,
2013-05-12 04:05:00,57.4,57.4,29.62,SW,221,0.1,2.9,100,0.00,n/a,n/a,-99.99,Henriksen +1-Wire,2013-05-12 08:05:00,
2013-05-12 04:10:00,57.4,57.4,29.62,SSW,193,0.3,1.7,100,0.00,n/a,n/a,-99.99,Henriksen +1-Wire,2013-05-12 08:10:00,
2013-05-12 04:15:00,57.3,57.3,29.62,SSE,163,1.4,2.4,100,0.00,n/a,n/a,-99.99,Henriksen +1-Wire,2013-05-12 08:15:00,
2013-05-12 04:20:00,57.0,57.0,29.61,SSE,161,2.2,3.2,100,0.00,n/a,n/a,-99.99,Henriksen +1-Wire,2013-05-12 08:20:00,
2013-05-12 04:25:00,56.5,56.5,29.61,SSE,165,2.4,4.8,100,0.00,n/a,n/a,-99.99,Henriksen +1-Wire,2013-05-12 08:25:00,
2013-05-12 04:30:00,55.9,55.9,29.61,SSE,163,1.6,4.8,100,0.00,n/a,n/a,-99.99,Henriksen +1-Wire,2013-05-12 08:30:00,
2013-05-12 04:35:00,55.4,55.4,29.61,SE,135,1.7,3.3,100,0.00,n/a,n/a,-99.99,Henriksen +1-Wire,2013-05-12 08:35:00,
2013-05-12 04:40:00,55.1,55.1,29.61,SSE,147,1.8,3.2,100,0.00,n/a,n/a,-99.99,Henriksen +1-Wire,2013-05-12 08:40:00,
2013-05-12 04:45:00,54.8,54.8,29.61,SSE,157,2.9,4.0,100,0.00,n/a,n/a,-99.99,Henriksen +1-Wire,2013-05-12 08:45:00,
2013-05-12 04:50:00,54.6,54.6,29.61,South,190,1.9,4.2,100,0.00,n/a,n/a,-99.99,Henriksen +1-Wire,2013-05-12 08:50:00,
2013-05-12 04:55:00,54.5,54.5,29.61,South,186,1.6,4.2,100,0.00,n/a,n/a,-99.99,Henriksen +1-Wire,2013-05-12 08:55:00,
2013-05-12 05:00:00,54.4,54.4,29.62,WSW,253,1.2,4.2,100,0.00,n/a,n/a,-99.99,Henriksen +1-Wire,2013-05-12 09:00:00,
2013-05-12 05:05:00,54.3,54.3,29.62,SE,138,1.1,3.2,100,0.00,n/a,n/a,-99.99,Henriksen +1-Wire,2013-05-12 09:05:00,
2013-05-12 05:10:00,54.3,54.3,29.62,SE,124,0.3,2.4,100,0.00,n/a,n/a,-99.99,Henriksen +1-Wire,2013-05-12 09:10:00,
2013-05-12 05:15:00,54.3,54.3,29.62,South,182,0.0,2.4,100,0.00,n/a,n/a,-99.99,Henriksen +1-Wire,2013-05-12 09:15:00,
2013-05-12 05:20:00,54.4,54.4,29.62,South,171,0.0,0.0,100,0.00,n/a,n/a,-99.99,Henriksen +1-Wire,2013-05-12 09:20:00,
2013-05-12 05:25:00,54.4,54.4,29.62,South,178,0.0,0.0,100,0.00,n/a,n/a,-99.99,Henriksen +1-Wire,2013-05-12 09:25:00,
2013-05-12 05:30:00,54.5,54.5,29.62,ENE,63,0.7,1.6,100,0.00,n/a,n/a,-99.99,Henriksen +1-Wire,2013-05-12 09:30:00,
2013-05-12 05:35:00,54.6,54.6,29.62,East,93,0.1,1.6,100,0.00,n/a,n/a,-99.99,Henriksen +1-Wire,2013-05-12 09:35:00,
2013-05-12 05:40:00,54.7,54.7,29.62,South,182,0.2,1.6,100,0.00,n/a,n/a,-99.99,Henriksen +1-Wire,2013-05-12 09:40:00,
2013-05-12 05:45:00,54.8,54.8,29.62,SSW,193,1.6,2.4,100,0.00,n/a,n/a,-99.99,Henriksen +1-Wire,2013-05-12 09:45:00,
2013-05-12 05:50:00,54.9,54.9,29.62,SE,145,1.6,2.4,100,0.00,n/a,n/a,-99.99,Henriksen +1-Wire,2013-05-12 09:50:00,
2013-05-12 05:55:00,55.0,55.0,29.62,South,176,0.4,2.4,100,0.00,n/a,n/a,-99.99,Henriksen +1-Wire,2013-05-12 09:55:00,
2013-05-12 06:00:00,55.1,55.1,29.62,SSE,155,2.0,3.9,100,0.00,n/a,n/a,-99.99,Henriksen +1-Wire,2013-05-12 10:00:00,
2013-05-12 06:05:00,55.2,55.2,29.63,South,171,1.9,3.9,100,0.00,n/a,n/a,-99.99,Henriksen +1-Wire,2013-05-12 10:05:00,
2013-05-12 06:10:00,55.1,55.1,29.63,South,186,3.0,4.8,100,0.00,n/a,n/a,-99.99,Henriksen +1-Wire,2013-05-12 10:10:00,
2013-05-12 06:16:00,54.7,54.7,29.63,SSW,196,2.7,4.8,100,0.00,n/a,n/a,-99.99,Henriksen +1-Wire,2013-05-12 10:16:00,
2013-05-12 06:22:00,54.4,54.4,29.63,SSW,193,2.8,4.8,100,0.00,n/a,n/a,-99.99,Henriksen +1-Wire,2013-05-12 10:22:00,
2013-05-12 06:27:00,54.1,54.1,29.64,SSW,194,2.9,4.1,100,0.00,n/a,n/a,-99.99,Henriksen +1-Wire,2013-05-12 10:27:00,
2013-05-12 06:32:00,53.9,53.9,29.63,South,185,2.4,4.7,100,0.00,n/a,n/a,-99.99,Henriksen +1-Wire,2013-05-12 10:32:00,
2013-05-12 06:37:00,53.9,53.9,29.63,SSW,194,2.0,4.7,100,0.00,n/a,n/a,-99.99,Henriksen +1-Wire,2013-05-12 10:37:00,
2013-05-12 06:42:00,53.9,53.9,29.63,SSW,196,2.0,3.6,100,0.00,n/a,n/a,-99.99,Henriksen +1-Wire,2013-05-12 10:42:00,
2013-05-12 06:47:00,54.1,54.1,29.63,South,190,1.3,4.0,100,0.01,n/a,n/a,-99.99,Henriksen +1-Wire,2013-05-12 10:47:00,
2013-05-12 06:52:00,54.2,54.2,29.63,South,186,1.5,4.0,100,0.01,n/a,n/a,-99.99,Henriksen +1-Wire,2013-05-12 10:52:00,
2013-05-12 06:58:00,54.4,54.4,29.63,South,172,0.7,3.1,100,0.01,n/a,n/a,-99.99,Henriksen +1-Wire,2013-05-12 10:58:00,
2013-05-12 07:03:00,54.5,54.5,29.63,SE,136,0.2,2.4,100,0.01,n/a,n/a,-99.99,Henriksen +1-Wire,2013-05-12 11:03:00,
2013-05-12 07:08:00,54.7,54.7,29.63,SE,124,0.2,1.6,100,0.01,n/a,n/a,-99.99,Henriksen +1-Wire,2013-05-12 11:08:00,
2013-05-12 07:13:00,54.9,54.9,29.63,East,81,1.2,1.8,100,0.01,n/a,n/a,-99.99,Henriksen +1-Wire,2013-05-12 11:13:00,
2013-05-12 07:18:00,55.1,55.1,29.62,East,98,0.1,1.8,100,0.01,n/a,n/a,-99.99,Henriksen +1-Wire,2013-05-12 11:18:00,
2013-05-12 07:23:00,55.2,55.2,29.62,SSE,168,0.9,1.7,100,0.01,n/a,n/a,-99.99,Henriksen +1-Wire,2013-05-12 11:23:00,
2013-05-12 07:28:00,55.4,55.4,29.61,South,169,2.8,4.2,100,0.01,n/a,n/a,-99.99,Henriksen +1-Wire,2013-05-12 11:28:00,
2013-05-12 07:33:00,55.4,55.4,29.61,SSE,153,1.9,4.2,100,0.01,n/a,n/a,-99.99,Henriksen +1-Wire,2013-05-12 11:33:00,
2013-05-12 07:38:00,55.4,55.4,29.61,SSE,156,3.2,4.8,100,0.01,n/a,n/a,-99.99,Henriksen +1-Wire,2013-05-12 11:38:00,
2013-05-12 07:43:00,55.3,55.3,29.60,South,184,1.4,4.8,100,0.01,n/a,n/a,-99.99,Henriksen +1-Wire,2013-05-12 11:43:00,
2013-05-12 07:48:00,55.2,55.2,29.60,SSW,197,1.8,4.8,100,0.00,n/a,n/a,-99.99,Henriksen +1-Wire,2013-05-12 11:48:00,
2013-05-12 07:53:00,55.1,55.1,29.61,South,180,1.7,4.1,100,0.00,n/a,n/a,-99.99,Henriksen +1-Wire,2013-05-12 11:53:00,
2013-05-12 07:58:00,55.1,55.1,29.61,South,184,0.9,2.5,100,0.00,n/a,n/a,-99.99,Henriksen +1-Wire,2013-05-12 11:58:00,
2013-05-12 08:03:00,55.1,55.1,29.61,SSW,193,1.2,2.4,100,0.00,n/a,n/a,-99.99,Henriksen +1-Wire,2013-05-12 12:03:00,
2013-05-12 08:08:00,55.4,55.4,29.61,SSW,204,2.5,4.0,100,0.00,n/a,n/a,-99.99,Henriksen +1-Wire,2013-05-12 12:08:00,
2013-05-12 08:13:00,55.9,55.9,29.61,SW,232,1.4,4.3,100,0.00,n/a,n/a,-99.99,Henriksen +1-Wire,2013-05-12 12:13:00,
2013-05-12 08:18:00,56.1,56.1,29.61,SW,229,1.3,4.3,100,0.00,n/a,n/a,-99.99,Henriksen +1-Wire,2013-05-12 12:18:00,
2013-05-12 08:23:00,56.3,56.3,29.61,SW,223,0.5,3.9,100,0.00,n/a,n/a,-99.99,Henriksen +1-Wire,2013-05-12 12:23:00,
2013-05-12 08:28:00,56.7,56.7,29.61,SSW,201,1.8,3.0,100,0.01,n/a,n/a,-99.99,Henriksen +1-Wire,2013-05-12 12:28:00,
2013-05-12 08:33:00,56.9,56.9,29.61,SSW,193,2.4,4.0,100,0.01,n/a,n/a,-99.99,Henriksen +1-Wire,2013-05-12 12:33:00,
2013-05-12 08:38:00,56.9,56.9,29.61,South,180,2.1,4.0,100,0.01,n/a,n/a,-99.99,Henriksen +1-Wire,2013-05-12 12:38:00,
2013-05-12 08:43:00,56.5,56.5,29.61,South,191,2.4,4.0,100,0.01,n/a,n/a,-99.99,Henriksen +1-Wire,2013-05-12 12:43:00,
2013-05-12 08:48:00,56.3,56.3,29.61,SSW,197,1.4,4.0,100,0.01,n/a,n/a,-99.99,Henriksen +1-Wire,2013-05-12 12:48:00,
2013-05-12 08:53:00,56.3,56.3,29.61,SW,215,2.2,5.6,100,0.01,n/a,n/a,-99.99,Henriksen +1-Wire,2013-05-12 12:53:00,
2013-05-12 08:58:00,56.4,56.4,29.61,SW,218,2.7,6.3,100,0.02,n/a,n/a,-99.99,Henriksen +1-Wire,2013-05-12 12:58:00,
2013-05-12 09:04:00,57.0,57.0,29.60,SSW,211,1.8,6.3,100,0.03,n/a,n/a,-99.99,Henriksen +1-Wire,2013-05-12 13:04:00,
2013-05-12 09:09:00,57.5,57.5,29.60,SSW,206,2.6,5.9,100,0.03,n/a,n/a,-99.99,Henriksen +1-Wire,2013-05-12 13:09:00,
2013-05-12 09:14:00,57.8,57.8,29.59,SSW,206,2.2,5.9,100,0.04,n/a,n/a,-99.99,Henriksen +1-Wire,2013-05-12 13:14:00,
2013-05-12 09:19:00,57.9,57.9,29.59,SSW,196,1.4,4.2,100,0.04,n/a,n/a,-99.99,Henriksen +1-Wire,2013-05-12 13:19:00,
2013-05-12 09:24:00,58.0,58.0,29.58,SSW,207,2.3,5.0,100,0.04,n/a,n/a,-99.99,Henriksen +1-Wire,2013-05-12 13:24:00,
2013-05-12 09:29:00,58.1,58.1,29.58,SSW,208,2.7,5.6,100,0.03,n/a,n/a,-99.99,Henriksen +1-Wire,2013-05-12 13:29:00,
2013-05-12 09:35:00,58.3,58.3,29.58,SW,221,3.0,5.6,100,0.03,n/a,n/a,-99.99,Henriksen +1-Wire,2013-05-12 13:35:00,
2013-05-12 09:40:00,58.3,58.3,29.58,SSW,210,3.3,7.0,100,0.03,n/a,n/a,-99.99,Henriksen +1-Wire,2013-05-12 13:40:00,
2013-05-12 09:45:00,58.3,58.3,29.58,SW,220,2.4,7.0,100,0.03,n/a,n/a,-99.99,Henriksen +1-Wire,2013-05-12 13:45:00,
2013-05-12 09:50:00,58.4,58.4,29.58,SW,236,2.0,7.1,100,0.03,n/a,n/a,-99.99,Henriksen +1-Wire,2013-05-12 13:50:00,
2013-05-12 09:55:00,58.5,58.5,29.59,West,259,1.5,7.1,100,0.03,n/a,n/a,-99.99,Henriksen +1-Wire,2013-05-12 13:55:00,
2013-05-12 10:00:00,58.6,58.6,29.59,SW,231,1.8,3.2,100,0.02,n/a,n/a,-99.99,Henriksen +1-Wire,2013-05-12 14:00:00,
2013-05-12 10:05:00,58.7,58.7,29.59,West,266,0.3,3.2,100,0.01,n/a,n/a,-99.99,Henriksen +1-Wire,2013-05-12 14:05:00,
2013-05-12 10:10:00,58.9,58.9,29.59,North,354,0.5,2.4,100,0.02,n/a,n/a,-99.99,Henriksen +1-Wire,2013-05-12 14:10:00,
2013-05-12 10:15:00,59.4,59.4,29.58,North,3,0.8,1.6,100,0.01,n/a,n/a,-99.99,Henriksen +1-Wire,2013-05-12 14:15:00,
2013-05-12 10:20:00,59.8,59.8,29.58,ESE,108,0.3,1.7,100,0.01,n/a,n/a,-99.99,Henriksen +1-Wire,2013-05-12 14:20:00,
2013-05-12 10:25:00,60.3,60.3,29.58,SW,225,1.6,3.2,100,0.01,n/a,n/a,-99.99,Henriksen +1-Wire,2013-05-12 14:25:00,
2013-05-12 10:30:00,60.6,60.6,29.58,SW,228,0.6,3.2,100,0.01,n/a,n/a,-99.99,Henriksen +1-Wire,2013-05-12 14:30:00,
2013-05-12 10:35:00,60.8,60.8,29.58,West,276,0.8,3.2,100,0.01,n/a,n/a,-99.99,Henriksen +1-Wire,2013-05-12 14:35:00,
2013-05-12 10:40:00,61.0,61.0,29.58,NW,324,1.1,3.1,100,0.01,n/a,n/a,-99.99,Henriksen +1-Wire,2013-05-12 14:40:00,
2013-05-12 10:45:00,61.1,61.1,29.58,NNW,331,1.4,4.0,100,0.01,n/a,n/a,-99.99,Henriksen +1-Wire,2013-05-12 14:45:00,
2013-05-12 10:50:00,61.2,61.2,29.58,SSW,199,0.7,4.0,100,0.01,n/a,n/a,-99.99,Henriksen +1-Wire,2013-05-12 14:50:00,
2013-05-12 10:55:00,61.3,61.3,29.58,NW,315,1.2,2.4,100,0.01,n/a,n/a,-99.99,Henriksen +1-Wire,2013-05-12 14:55:00,
2013-05-12 11:00:00,61.2,61.2,29.58,NW,320,1.7,3.5,100,0.01,n/a,n/a,-99.99,Henriksen +1-Wire,2013-05-12 15:00:00,
2013-05-12 11:06:00,61.2,61.2,29.58,NW,315,1.7,4.2,100,0.01,n/a,n/a,-99.99,Henriksen +1-Wire,2013-05-12 15:06:00,
2013-05-12 11:11:00,61.0,60.9,29.58,NW,325,2.2,6.5,99,0.00,n/a,n/a,-99.99,Henriksen +1-Wire,2013-05-12 15:11:00,
2013-05-12 11:16:00,60.8,60.6,29.58,NW,323,1.6,6.5,99,0.00,n/a,n/a,-99.99,Henriksen +1-Wire,2013-05-12 15:16:00,
2013-05-12 11:21:00,60.7,60.3,29.58,NNE,28,1.4,4.6,98,0.00,n/a,n/a,-99.99,Henriksen +1-Wire,2013-05-12 15:21:00,
2013-05-12 11:26:00,60.5,60.0,29.57,North,350,2.2,4.6,98,0.00,n/a,n/a,-99.99,Henriksen +1-Wire,2013-05-12 15:26:00,
2013-05-12 11:31:00,60.4,59.7,29.57,NNW,336,2.6,5.2,97,0.00,n/a,n/a,-99.99,Henriksen +1-Wire,2013-05-12 15:31:00,
2013-05-12 11:36:00,60.2,59.2,29.57,NW,320,2.4,6.3,96,0.00,n/a,n/a,-99.99,Henriksen +1-Wire,2013-05-12 15:36:00,
2013-05-12 11:41:00,60.0,58.9,29.57,NW,313,1.9,6.3,95,0.00,n/a,n/a,-99.99,Henriksen +1-Wire,2013-05-12 15:41:00,
2013-05-12 11:46:00,59.9,58.6,29.57,NW,317,1.4,4.4,95,0.00,n/a,n/a,-99.99,Henriksen +1-Wire,2013-05-12 15:46:00,
2013-05-12 11:51:00,59.7,58.3,29.57,NW,320,1.6,4.0,94,0.00,n/a,n/a,-99.99,Henriksen +1-Wire,2013-05-12 15:51:00,
2013-05-12 11:56:00,59.7,58.0,29.57,NW,320,1.7,4.0,94,0.00,n/a,n/a,-99.99,Henriksen +1-Wire,2013-05-12 15:56:00,
2013-05-12 12:01:00,59.8,58.0,29.57,NNW,341,1.1,4.0,93,0.00,n/a,n/a,-99.99,Henriksen +1-Wire,2013-05-12 16:01:00,
2013-05-12 12:06:00,59.9,58.1,29.57,NNW,329,2.0,3.3,93,0.00,n/a,n/a,-99.99,Henriksen +1-Wire,2013-05-12 16:06:00,
2013-05-12 12:11:00,60.0,58.2,29.57,NW,323,1.1,3.4,93,0.00,n/a,n/a,-99.99,Henriksen +1-Wire,2013-05-12 16:11:00,
2013-05-12 12:16:00,60.3,58.3,29.57,NW,318,1.7,4.9,93,0.00,n/a,n/a,-99.99,Henriksen +1-Wire,2013-05-12 16:16:00,
2013-05-12 12:21:00,60.5,58.4,29.57,NW,319,2.0,5.6,92,0.00,n/a,n/a,-99.99,Henriksen +1-Wire,2013-05-12 16:21:00,
2013-05-12 12:26:00,60.7,58.1,29.57,NW,324,1.1,5.6,91,0.00,n/a,n/a,-99.99,Henriksen +1-Wire,2013-05-12 16:26:00,
2013-05-12 12:32:00,61.2,57.9,29.57,NNW,332,1.7,4.1,88,0.00,n/a,n/a,-99.99,Henriksen +1-Wire,2013-05-12 16:32:00,
2013-05-12 12:38:00,61.6,57.8,29.57,NW,317,0.8,4.8,87,0.00,n/a,n/a,-99.99,Henriksen +1-Wire,2013-05-12 16:38:00,
2013-05-12 12:43:00,62.1,57.7,29.57,West,263,1.6,4.8,85,0.00,n/a,n/a,-99.99,Henriksen +1-Wire,2013-05-12 16:43:00,
2013-05-12 12:49:00,63.0,58.0,29.57,West,272,1.2,3.7,83,0.00,n/a,n/a,-99.99,Henriksen +1-Wire,2013-05-12 16:49:00,
2013-05-12 12:54:00,64.0,58.7,29.57,NW,322,1.8,4.0,82,0.00,n/a,n/a,-99.99,Henriksen +1-Wire,2013-05-12 16:54:00,
2013-05-12 12:59:00,64.5,59.0,29.57,NW,318,1.2,4.1,82,0.00,n/a,n/a,-99.99,Henriksen +1-Wire,2013-05-12 16:59:00,
2013-05-12 13:05:00,64.9,59.5,29.57,West,267,2.8,5.5,82,0.00,n/a,n/a,-99.99,Henriksen +1-Wire,2013-05-12 17:05:00,
2013-05-12 13:10:00,65.0,59.6,29.57,NNW,345,2.3,6.3,82,0.00,n/a,n/a,-99.99,Henriksen +1-Wire,2013-05-12 17:10:00,
2013-05-12 13:15:00,65.1,59.4,29.57,NNW,331,1.8,6.3,81,0.00,n/a,n/a,-99.99,Henriksen +1-Wire,2013-05-12 17:15:00,
2013-05-12 13:20:00,65.6,59.6,29.57,SW,232,1.4,6.3,80,0.00,n/a,n/a,-99.99,Henriksen +1-Wire,2013-05-12 17:20:00,
2013-05-12 13:25:00,66.2,59.5,29.57,West,271,2.4,4.0,78,0.00,n/a,n/a,-99.99,Henriksen +1-Wire,2013-05-12 17:25:00,
2013-05-12 13:30:00,66.6,58.8,29.57,NNW,328,3.0,5.5,75,0.00,n/a,n/a,-99.99,Henriksen +1-Wire,2013-05-12 17:30:00,
2013-05-12 13:35:00,66.7,57.7,29.57,NW,319,1.6,5.5,72,0.00,n/a,n/a,-99.99,Henriksen +1-Wire,2013-05-12 17:35:00,
2013-05-12 13:40:00,66.8,56.7,29.57,West,263,1.9,4.9,69,0.00,n/a,n/a,-99.99,Henriksen +1-Wire,2013-05-12 17:40:00,
2013-05-12 13:45:00,66.7,56.6,29.57,West,273,2.6,4.9,69,0.00,n/a,n/a,-99.99,Henriksen +1-Wire,2013-05-12 17:45:00,
2013-05-12 13:50:00,67.0,57.0,29.57,NE,41,2.3,7.1,69,0.00,n/a,n/a,-99.99,Henriksen +1-Wire,2013-05-12 17:50:00,
2013-05-12 13:55:00,67.4,56.8,29.56,West,268,2.9,7.1,68,0.00,n/a,n/a,-99.99,Henriksen +1-Wire,2013-05-12 17:55:00,
2013-05-12 14:00:00,68.1,56.7,29.56,West,260,2.3,5.5,66,0.00,n/a,n/a,-99.99,Henriksen +1-Wire,2013-05-12 18:00:00,
2013-05-12 14:05:00,68.1,55.9,29.57,West,273,1.6,8.6,64,0.00,n/a,n/a,-99.99,Henriksen +1-Wire,2013-05-12 18:05:00,
2013-05-12 14:10:00,67.9,55.3,29.57,NNW,344,2.4,10.2,63,0.00,n/a,n/a,-99.99,Henriksen +1-Wire,2013-05-12 18:10:00,
2013-05-12 14:15:00,67.9,55.0,29.57,NW,323,2.5,10.2,62,0.00,n/a,n/a,-99.99,Henriksen +1-Wire,2013-05-12 18:15:00,
2013-05-12 14:20:00,68.1,54.9,29.56,SW,220,2.1,6.6,62,0.00,n/a,n/a,-99.99,Henriksen +1-Wire,2013-05-12 18:20:00,
2013-05-12 14:25:00,68.2,54.8,29.57,West,265,3.9,7.3,61,0.00,n/a,n/a,-99.99,Henriksen +1-Wire,2013-05-12 18:25:00,
2013-05-12 14:30:00,68.5,55.0,29.56,WSW,257,2.6,7.3,61,0.00,n/a,n/a,-99.99,Henriksen +1-Wire,2013-05-12 18:30:00,
2013-05-12 14:35:00,69.2,55.5,29.56,West,270,1.7,5.9,61,0.00,n/a,n/a,-99.99,Henriksen +1-Wire,2013-05-12 18:35:00,
2013-05-12 14:40:00,69.5,55.2,29.56,SW,230,1.6,4.7,59,0.00,n/a,n/a,-99.99,Henriksen +1-Wire,2013-05-12 18:40:00,
2013-05-12 14:45:00,69.4,54.6,29.55,West,261,2.3,4.7,58,0.00,n/a,n/a,-99.99,Henriksen +1-Wire,2013-05-12 18:45:00,
2013-05-12 14:50:00,69.4,54.0,29.55,WSW,250,0.8,4.7,57,0.00,n/a,n/a,-99.99,Henriksen +1-Wire,2013-05-12 18:50:00,
2013-05-12 14:55:00,69.3,53.7,29.55,WNW,298,1.7,4.7,57,0.00,n/a,n/a,-99.99,Henriksen +1-Wire,2013-05-12 18:55:00,
2013-05-12 15:00:00,69.3,53.8,29.55,NW,315,2.9,5.5,57,0.00,n/a,n/a,-99.99,Henriksen +1-Wire,2013-05-12 19:00:00,
2013-05-12 15:05:00,69.7,54.4,29.55,WNW,293,1.7,5.5,57,0.00,n/a,n/a,-99.99,Henriksen +1-Wire,2013-05-12 19:05:00,
2013-05-12 15:10:00,69.8,54.2,29.54,NW,304,1.8,6.3,57,0.00,n/a,n/a,-99.99,Henriksen +1-Wire,2013-05-12 19:10:00,
2013-05-12 15:15:00,69.5,54.2,29.54,WNW,292,2.6,6.3,57,0.00,n/a,n/a,-99.99,Henriksen +1-Wire,2013-05-12 19:15:00,
2013-05-12 15:20:00,69.9,55.3,29.54,NW,316,2.9,9.4,59,0.00,n/a,n/a,-99.99,Henriksen +1-Wire,2013-05-12 19:20:00,
2013-05-12 15:25:00,70.4,56.0,29.54,WNW,291,3.3,9.4,59,0.00,n/a,n/a,-99.99,Henriksen +1-Wire,2013-05-12 19:25:00,
2013-05-12 15:30:00,70.9,56.2,29.55,WSW,258,1.7,6.2,59,0.00,n/a,n/a,-99.99,Henriksen +1-Wire,2013-05-12 19:30:00,
2013-05-12 15:35:00,71.3,55.8,29.55,West,259,2.0,4.4,57,0.00,n/a,n/a,-99.99,Henriksen +1-Wire,2013-05-12 19:35:00,
2013-05-12 15:40:00,71.4,55.4,29.54,SSW,205,3.9,7.9,56,0.00,n/a,n/a,-99.99,Henriksen +1-Wire,2013-05-12 19:40:00,
2013-05-12 15:45:00,70.8,54.2,29.54,SSW,193,3.8,7.9,55,0.00,n/a,n/a,-99.99,Henriksen +1-Wire,2013-05-12 19:45:00,
2013-05-12 15:50:00,69.5,53.5,29.55,South,186,3.4,8.6,56,0.00,n/a,n/a,-99.99,Henriksen +1-Wire,2013-05-12 19:50:00,
2013-05-12 15:56:00,67.3,53.0,29.55,SSW,203,3.1,8.6,59,0.00,n/a,n/a,-99.99,Henriksen +1-Wire,2013-05-12 19:56:00,
2013-05-12 16:01:00,65.7,52.7,29.55,SSW,194,4.2,7.1,62,0.00,n/a,n/a,-99.99,Henriksen +1-Wire,2013-05-12 20:01:00,
2013-05-12 16:07:00,64.1,52.6,29.55,South,185,2.2,7.1,65,0.00,n/a,n/a,-99.99,Henriksen +1-Wire,2013-05-12 20:07:00,
2013-05-12 16:12:00,63.0,52.8,29.55,South,183,2.4,5.5,69,0.00,n/a,n/a,-99.99,Henriksen +1-Wire,2013-05-12 20:12:00,
2013-05-12 16:17:00,61.9,52.8,29.55,South,170,1.9,4.7,71,0.00,n/a,n/a,-99.99,Henriksen +1-Wire,2013-05-12 20:17:00,
2013-05-12 16:23:00,60.9,53.2,29.55,NE,55,2.2,4.7,75,0.00,n/a,n/a,-99.99,Henriksen +1-Wire,2013-05-12 20:23:00,
2013-05-12 16:28:00,60.7,53.7,29.56,South,190,1.0,4.0,77,0.00,n/a,n/a,-99.99,Henriksen +1-Wire,2013-05-12 20:28:00,
2013-05-12 16:34:00,61.0,54.6,29.56,South,185,3.3,5.7,79,0.00,n/a,n/a,-99.99,Henriksen +1-Wire,2013-05-12 20:34:00,
2013-05-12 16:39:00,61.4,54.6,29.56,South,179,2.3,6.3,78,0.00,n/a,n/a,-99.99,Henriksen +1-Wire,2013-05-12 20:39:00,
2013-05-12 16:45:00,61.5,54.2,29.55,South,179,4.9,7.9,76,0.00,n/a,n/a,-99.99,Henriksen +1-Wire,2013-05-12 20:45:00,
2013-05-12 16:50:00,61.3,54.3,29.55,SE,128,2.4,7.9,77,0.00,n/a,n/a,-99.99,Henriksen +1-Wire,2013-05-12 20:50:00,
2013-05-12 16:55:00,60.8,54.5,29.55,SE,139,3.8,6.3,79,0.00,n/a,n/a,-99.99,Henriksen +1-Wire,2013-05-12 20:55:00,
2013-05-12 17:00:00,60.4,54.9,29.55,South,181,4.2,8.2,82,0.00,n/a,n/a,-99.99,Henriksen +1-Wire,2013-05-12 21:00:00,
2013-05-12 17:06:00,59.8,55.0,29.55,South,177,2.4,8.2,83,0.00,n/a,n/a,-99.99,Henriksen +1-Wire,2013-05-12 21:06:00,
2013-05-12 17:11:00,59.6,55.2,29.55,SE,145,2.6,5.8,85,0.00,n/a,n/a,-99.99,Henriksen +1-Wire,2013-05-12 21:11:00,
2013-05-12 17:16:00,59.7,55.6,29.55,SSE,154,2.2,5.5,86,0.00,n/a,n/a,-99.99,Henriksen +1-Wire,2013-05-12 21:16:00,
2013-05-12 17:21:00,59.8,55.7,29.55,East,90,1.5,4.8,85,0.00,n/a,n/a,-99.99,Henriksen +1-Wire,2013-05-12 21:21:00,
2013-05-12 17:26:00,59.7,55.4,29.56,SE,143,4.0,5.5,85,0.00,n/a,n/a,-99.99,Henriksen +1-Wire,2013-05-12 21:26:00,
2013-05-12 17:31:00,59.7,55.5,29.56,South,185,3.0,5.5,85,0.00,n/a,n/a,-99.99,Henriksen +1-Wire,2013-05-12 21:31:00,
2013-05-12 17:36:00,59.8,55.7,29.56,South,179,2.6,5.7,86,0.00,n/a,n/a,-99.99,Henriksen +1-Wire,2013-05-12 21:36:00,
2013-05-12 17:41:00,59.8,55.7,29.56,South,185,3.3,5.7,86,0.00,n/a,n/a,-99.99,Henriksen +1-Wire,2013-05-12 21:41:00,
2013-05-12 17:46:00,59.5,55.4,29.56,South,173,2.4,7.9,86,0.00,n/a,n/a,-99.99,Henriksen +1-Wire,2013-05-12 21:46:00,
2013-05-12 17:51:00,59.4,55.4,29.56,SSW,209,1.5,7.9,86,0.00,n/a,n/a,-99.99,Henriksen +1-Wire,2013-05-12 21:51:00,
2013-05-12 17:56:00,59.2,55.5,29.56,South,185,1.5,4.5,87,0.00,n/a,n/a,-99.99,Henriksen +1-Wire,2013-05-12 21:56:00,
2013-05-12 18:01:00,59.6,55.8,29.57,NW,319,5.6,10.7,86,0.00,n/a,n/a,-99.99,Henriksen +1-Wire,2013-05-12 22:01:00,
2013-05-12 18:06:00,60.7,55.2,29.57,NW,324,5.5,10.7,82,0.00,n/a,n/a,-99.99,Henriksen +1-Wire,2013-05-12 22:06:00,
2013-05-12 18:11:00,61.0,53.2,29.58,NNW,341,5.8,14.2,75,0.00,n/a,n/a,-99.99,Henriksen +1-Wire,2013-05-12 22:11:00,
2013-05-12 18:17:00,60.7,51.8,29.59,NNW,336,7.8,14.2,72,0.00,n/a,n/a,-99.99,Henriksen +1-Wire,2013-05-12 22:17:00,
2013-05-12 18:22:00,60.4,50.6,29.59,NNW,340,4.0,14.2,69,0.00,n/a,n/a,-99.99,Henriksen +1-Wire,2013-05-12 22:22:00,
2013-05-12 18:28:00,59.9,49.6,29.59,NNW,336,3.2,9.5,68,0.00,n/a,n/a,-99.99,Henriksen +1-Wire,2013-05-12 22:28:00,
2013-05-12 18:33:00,59.5,49.0,29.60,NNW,329,4.0,6.7,67,0.00,n/a,n/a,-99.99,Henriksen +1-Wire,2013-05-12 22:33:00,
2013-05-12 18:38:00,59.4,48.6,29.60,NNW,330,3.3,7.1,67,0.00,n/a,n/a,-99.99,Henriksen +1-Wire,2013-05-12 22:38:00,
2013-05-12 18:43:00,59.3,48.0,29.61,NW,316,3.3,7.1,65,0.00,n/a,n/a,-99.99,Henriksen +1-Wire,2013-05-12 22:43:00,
2013-05-12 18:48:00,59.1,47.7,29.61,NW,325,3.9,7.9,65,0.00,n/a,n/a,-99.99,Henriksen +1-Wire,2013-05-12 22:48:00,
2013-05-12 18:53:00,58.7,46.9,29.61,NNW,333,3.6,11.0,64,0.00,n/a,n/a,-99.99,Henriksen +1-Wire,2013-05-12 22:53:00,
2013-05-12 18:58:00,58.5,45.7,29.61,NNW,334,4.2,11.0,62,0.00,n/a,n/a,-99.99,Henriksen +1-Wire,2013-05-12 22:58:00,
2013-05-12 19:03:00,58.2,44.8,29.62,NNW,328,4.1,9.0,60,0.00,n/a,n/a,-99.99,Henriksen +1-Wire,2013-05-12 23:03:00,
2013-05-12 19:09:00,57.9,43.9,29.62,NNW,331,3.1,9.4,59,0.00,n/a,n/a,-99.99,Henriksen +1-Wire,2013-05-12 23:09:00,
2013-05-12 19:14:00,57.7,43.5,29.62,NNW,338,3.7,9.4,58,0.00,n/a,n/a,-99.99,Henriksen +1-Wire,2013-05-12 23:14:00,
2013-05-12 19:19:00,57.7,43.4,29.63,NNW,337,3.3,8.7,58,0.00,n/a,n/a,-99.99,Henriksen +1-Wire,2013-05-12 23:19:00,
2013-05-12 19:25:00,57.6,43.1,29.63,NNW,338,5.4,13.3,58,0.00,n/a,n/a,-99.99,Henriksen +1-Wire,2013-05-12 23:25:00,
2013-05-12 19:30:00,57.4,42.5,29.63,NNW,332,4.3,13.3,57,0.00,n/a,n/a,-99.99,Henriksen +1-Wire,2013-05-12 23:30:00,
2013-05-12 19:35:00,57.3,41.8,29.64,NNW,343,6.3,12.9,55,0.00,n/a,n/a,-99.99,Henriksen +1-Wire,2013-05-12 23:35:00,
2013-05-12 19:40:00,57.2,41.4,29.64,NNW,333,4.3,12.9,55,0.00,n/a,n/a,-99.99,Henriksen +1-Wire,2013-05-12 23:40:00,
2013-05-12 19:46:00,57.2,40.3,29.65,NNW,331,6.2,13.7,53,0.00,n/a,n/a,-99.99,Henriksen +1-Wire,2013-05-12 23:46:00,
2013-05-12 19:52:00,56.9,39.3,29.65,NW,317,5.6,12.5,51,0.00,n/a,n/a,-99.99,Henriksen +1-Wire,2013-05-12 23:52:00,
2013-05-12 19:57:00,56.6,39.0,29.65,NNW,332,4.5,11.1,51,0.00,n/a,n/a,-99.99,Henriksen +1-Wire,2013-05-12 23:57:00,
2013-05-12 20:02:00,56.5,38.8,29.65,NW,323,3.7,11.1,51,0.00,n/a,n/a,-99.99,Henriksen +1-Wire,2013-05-13 00:02:00,
2013-05-12 20:08:00,56.2,38.6,29.66,NNW,334,5.4,11.1,51,0.00,n/a,n/a,-99.99,Henriksen +1-Wire,2013-05-13 00:08:00,
2013-05-12 20:13:00,56.0,38.8,29.66,NNW,330,4.3,10.2,52,0.00,n/a,n/a,-99.99,Henriksen +1-Wire,2013-05-13 00:13:00,
2013-05-12 20:18:00,55.7,38.5,29.66,NNW,334,4.6,10.2,51,0.00,n/a,n/a,-99.99,Henriksen +1-Wire,2013-05-13 00:18:00,
2013-05-12 20:23:00,55.6,38.3,29.66,NNW,332,4.4,8.7,51,0.00,n/a,n/a,-99.99,Henriksen +1-Wire,2013-05-13 00:23:00,
2013-05-12 20:28:00,55.5,38.1,29.66,NNW,331,2.9,8.7,51,0.00,n/a,n/a,-99.99,Henriksen +1-Wire,2013-05-13 00:28:00,
2013-05-12 20:33:00,55.2,38.0,29.66,North,357,3.8,8.4,51,0.00,n/a,n/a,-99.99,Henriksen +1-Wire,2013-05-13 00:33:00,
2013-05-12 20:38:00,55.0,38.2,29.66,NNW,340,3.7,9.4,52,0.00,n/a,n/a,-99.99,Henriksen +1-Wire,2013-05-13 00:38:00,
2013-05-12 20:44:00,54.9,38.3,29.66,NNW,333,4.9,9.4,53,0.00,n/a,n/a,-99.99,Henriksen +1-Wire,2013-05-13 00:44:00,
2013-05-12 20:49:00,54.8,38.3,29.67,NNW,331,2.7,8.4,53,0.00,n/a,n/a,-99.99,Henriksen +1-Wire,2013-05-13 00:49:00,
2013-05-12 20:55:00,54.6,38.2,29.67,NNW,337,4.1,8.0,53,0.00,n/a,n/a,-99.99,Henriksen +1-Wire,2013-05-13 00:55:00,
2013-05-12 21:00:00,54.3,38.7,29.67,NNW,329,3.2,7.9,55,0.00,n/a,n/a,-99.99,Henriksen +1-Wire,2013-05-13 01:00:00,
2013-05-12 21:05:00,54.1,38.9,29.68,NNW,338,3.1,6.3,56,0.00,n/a,n/a,-99.99,Henriksen +1-Wire,2013-05-13 01:05:00,
2013-05-12 21:10:00,54.0,38.8,29.68,NNW,335,3.4,9.8,56,0.00,n/a,n/a,-99.99,Henriksen +1-Wire,2013-05-13 01:10:00,
2013-05-12 21:15:00,54.0,38.7,29.69,NNW,336,3.6,9.8,55,0.00,n/a,n/a,-99.99,Henriksen +1-Wire,2013-05-13 01:15:00,
2013-05-12 21:20:00,53.9,38.4,29.69,North,350,3.5,9.4,55,0.00,n/a,n/a,-99.99,Henriksen +1-Wire,2013-05-13 01:20:00,
2013-05-12 21:25:00,53.7,37.8,29.69,NNW,338,3.3,9.4,54,0.00,n/a,n/a,-99.99,Henriksen +1-Wire,2013-05-13 01:25:00,
2013-05-12 21:30:00,53.7,37.5,29.69,NNW,343,4.6,7.9,53,0.00,n/a,n/a,-99.99,Henriksen +1-Wire,2013-05-13 01:30:00,
2013-05-12 21:36:00,53.6,36.7,29.69,NNW,333,6.0,10.8,52,0.00,n/a,n/a,-99.99,Henriksen +1-Wire,2013-05-13 01:36:00,
2013-05-12 21:42:00,53.5,35.9,29.70,NW,323,3.1,10.8,50,0.00,n/a,n/a,-99.99,Henriksen +1-Wire,2013-05-13 01:42:00,
2013-05-12 21:48:00,53.4,35.5,29.70,NW,326,2.7,8.2,50,0.00,n/a,n/a,-99.99,Henriksen +1-Wire,2013-05-13 01:48:00,
2013-05-12 21:54:00,53.1,35.2,29.70,NNW,333,2.2,6.6,50,0.00,n/a,n/a,-99.99,Henriksen +1-Wire,2013-05-13 01:54:00,
2013-05-12 21:59:00,52.9,34.8,29.70,NW,325,2.8,6.6,50,0.00,n/a,n/a,-99.99,Henriksen +1-Wire,2013-05-13 01:59:00,
2013-05-12 22:05:00,52.7,34.9,29.70,NW,325,3.5,7.2,50,0.00,n/a,n/a,-99.99,Henriksen +1-Wire,2013-05-13 02:05:00,
2013-05-12 22:10:00,52.7,34.5,29.71,NW,319,2.8,7.1,49,0.00,n/a,n/a,-99.99,Henriksen +1-Wire,2013-05-13 02:10:00,
2013-05-12 22:15:00,52.6,34.0,29.71,NW,324,3.1,9.4,48,0.00,n/a,n/a,-99.99,Henriksen +1-Wire,2013-05-13 02:15:00,
2013-05-12 22:21:00,52.4,33.7,29.71,NNW,336,2.7,9.4,48,0.00,n/a,n/a,-99.99,Henriksen +1-Wire,2013-05-13 02:21:00,
2013-05-12 22:26:00,52.3,33.5,29.72,NW,326,3.6,6.3,48,0.00,n/a,n/a,-99.99,Henriksen +1-Wire,2013-05-13 02:26:00,
2013-05-12 22:31:00,52.1,33.5,29.72,NNW,331,2.9,8.6,48,0.00,n/a,n/a,-99.99,Henriksen +1-Wire,2013-05-13 02:31:00,
2013-05-12 22:36:00,52.0,33.5,29.72,NW,324,2.9,8.6,48,0.00,n/a,n/a,-99.99,Henriksen +1-Wire,2013-05-13 02:36:00,
2013-05-12 22:42:00,52.0,33.3,29.72,NNW,327,3.5,9.5,48,0.00,n/a,n/a,-99.99,Henriksen +1-Wire,2013-05-13 02:42:00,
2013-05-12 22:48:00,51.9,32.7,29.72,NNW,337,3.2,9.4,47,0.00,n/a,n/a,-99.99,Henriksen +1-Wire,2013-05-13 02:48:00,
2013-05-12 22:53:00,51.7,32.1,29.72,NNW,335,3.6,9.4,46,0.00,n/a,n/a,-99.99,Henriksen +1-Wire,2013-05-13 02:53:00,
2013-05-12 22:58:00,51.6,32.0,29.72,NNW,335,2.8,9.5,46,0.00,n/a,n/a,-99.99,Henriksen +1-Wire,2013-05-13 02:58:00,
2013-05-12 23:03:00,51.4,32.3,29.73,NNW,335,2.3,9.5,47,0.00,n/a,n/a,-99.99,Henriksen +1-Wire,2013-05-13 03:03:00,
2013-05-12 23:08:00,51.3,32.4,29.73,NNW,333,2.2,5.5,48,0.00,n/a,n/a,-99.99,Henriksen +1-Wire,2013-05-13 03:08:00,
2013-05-12 23:13:00,51.1,31.8,29.73,NNW,327,2.8,6.3,47,0.00,n/a,n/a,-99.99,Henriksen +1-Wire,2013-05-13 03:13:00,
2013-05-12 23:18:00,51.0,31.2,29.73,NNW,327,3.9,7.2,46,0.00,n/a,n/a,-99.99,Henriksen +1-Wire,2013-05-13 03:18:00,
2013-05-12 23:23:00,50.9,30.9,29.74,NW,325,3.3,7.2,46,0.00,n/a,n/a,-99.99,Henriksen +1-Wire,2013-05-13 03:23:00,
2013-05-12 23:28:00,50.8,31.1,29.74,NNW,336,2.8,6.3,46,0.00,n/a,n/a,-99.99,Henriksen +1-Wire,2013-05-13 03:28:00,
2013-05-12 23:33:00,50.7,31.3,29.74,NW,320,3.3,7.4,47,0.00,n/a,n/a,-99.99,Henriksen +1-Wire,2013-05-13 03:33:00,
2013-05-12 23:38:00,50.7,31.5,29.74,NNW,331,3.0,7.4,47,0.00,n/a,n/a,-99.99,Henriksen +1-Wire,2013-05-13 03:38:00,
2013-05-12 23:44:00,50.6,31.4,29.75,NNW,329,3.7,6.7,47,0.00,n/a,n/a,-99.99,Henriksen +1-Wire,2013-05-13 03:44:00,
2013-05-12 23:49:00,50.4,31.3,29.75,NNW,332,3.8,8.1,47,0.00,n/a,n/a,-99.99,Henriksen +1-Wire,2013-05-13 03:49:00,
2013-05-12 23:55:00,50.4,31.6,29.75,NNW,330,1.9,9.4,48,0.00,n/a,n/a,-99.99,Henriksen +1-Wire,2013-05-13 03:55:00,